Regional Weather Roundup
Issued by NWS Cleveland, OH

Home | Current Version | Previous Version | Text Only | Print | Product List | Glossary Off
Versions: 1 2 3 4 5 6 7 8 9 10 11 12 13 14 15 16 17 18 19 20 21 22 23 24 25 26 27 28 29 30 31 32 33 34 35 36 37 38 39 40 41 42 43 44 45 46 47 48 49 50

000
ASUS41 KCLE 180810
RWRCLE
OHIO REGIONAL WEATHER ROUNDUP
NATIONAL WEATHER SERVICE CLEVELAND, OH
300 AM EST WED JAN 18 2017

NOTE: "FAIR" INDICATES FEW OR NO CLOUDS BELOW 12,000 FEET WITH NO
SIGNIFICANT WEATHER AND/OR OBSTRUCTIONS TO VISIBILITY.

OHZ001>008-015>018-024>027-034-035-043-044-180900-
   NORTHWEST OHIO

CITY           SKY/WX    TMP DP  RH WIND       PRES   REMARKS
DEFIANCE       CLOUDY    37  33  85 W7        30.03R
FINDLAY        CLOUDY    38  34  85 W17       30.00R
TOLEDO EXPRESS CLOUDY    36  36 100 W13G23    29.99R
TOLEDO EXEC    CLOUDY    38  37  97 W14       30.00R FOG
LIMA           CLOUDY    37  34  89 W17G24    30.02R
$$

OHZ009>014-019>023-028>033-038-089-180900-
   NORTHEAST OHIO

CITY           SKY/WX    TMP DP  RH WIND       PRES   REMARKS
CLE-HOPKINS    LGT RAIN  43  38  82 W16       29.98R FOG
CLE-LAKEFRONT  LGT RAIN  38  37  97 W14       29.95R FOG
CUY CO. ARPT   NOT AVBL
LORAIN-ELYRIA  LGT RAIN  40  37  89 W9        29.97R FOG
ASHTABULA      CLOUDY    40  39  97 W14G21    29.93R FOG
AKRON-CANTON   CLOUDY    45  40  82 W13       29.94R
WOOSTER        CLOUDY    42  39  89 W14       29.96R FOG
MANSFIELD      CLOUDY    40  38  93 W14G22    29.96R
YOUNGSTOWN     CLOUDY    43  40  89 W9        29.93R
$$

OHZ042-051>053-060>062-070>072-077>081-180900-
  SOUTHWEST OHIO

CITY           SKY/WX    TMP DP  RH WIND       PRES   REMARKS
CINC-COVINGTON DRIZZLE   42  40  92 W15G23    30.07R
CINC-LUNKEN    LGT RAIN  44  42  93 W8        30.09R
HAMILTON       CLOUDY    42  39  89 W10       30.09R
DAYTON         CLOUDY    38  35  89 NW17      30.05R
WRIGHT-PAT AFB CLOUDY    40  38  93 W12       30.04R
DAYTON GENERAL CLOUDY    41  38  89 W14       30.05R
WILMINGTON     LGT RAIN  42  40  92 W13       30.03R
$$

OHZ036-037-039>041-045>050-054>059-063>069-073>076-082>088-180900-
  CENTRAL AND SOUTHEAST OHIO

CITY           SKY/WX    TMP DP  RH WIND       PRES   REMARKS
COLUMBUS       CLOUDY    45  40  82 W12       30.01R
OSU AIRPORT    CLOUDY    41  40  96 W10       30.01R
BOLTON FIELD   CLOUDY    42  40  93 W9        30.03R
RICKENBACK AFB DRIZZLE   42  40  92 W15       30.02R
NEWARK         CLOUDY    45  40  82 W7        30.00R
MARION         CLOUDY    40  36  86 W12       30.00R
LANCASTER      CLOUDY    46  41  82 W9        30.02R
ZANESVILLE     CLOUDY    46  40  79 W7        29.99R
NEW PHILLY     NOT AVBL
$$




USA.gov is the U.S. government's official web portal to all federal, state and local government web resources and services.